This demonstration page uses our WeatherBlox Daily Observations layout. Learn more.

Left ArrowRight Arrow

38.89511, -77.03637

Hourly Observations for February 22, 2017

Temp ( °F °C ) Dew Point ( °F °C ) Humidity (%) Winds ( mph kmh ) Pressure ( in mb ) Visibility ( mi km ) Precip ( " mm )
12:52 am 00:52 Cloudy 47 8.3 39 3.9 74 74 S 6 9 30.11 1020 10 16 0.00 0.00
1:52 am 01:52 Cloudy 47 8.3 40 4.4 77 77 S 6 9 30.08 1019 10 16 0.00 0.00
2:52 am 02:52 Cloudy 46 7.8 40 4.4 79 79 S 8 13 30.05 1018 10 16 0.00 0.00
3:52 am 03:52 Cloudy 46 7.8 40 4.4 79 79 S 7 11 30.04 1017 10 16 0.00 0.00
4:52 am 04:52 Cloudy 46 7.8 41 5 83 83 S 9 15 30.04 1017 10 16 0.00 0.00
5:52 am 05:52 Cloudy 47 8.3 41 5 80 80 Calm 30.05 1018 10 16 0.00 0.00
6:52 am 06:52 Cloudy with Light Rain 47 8.3 41 5 80 80 Calm 30.04 1017 10 16 0.00 0.03
7:52 am 07:52 Cloudy 47 8.3 42 5.6 83 83 S 3 6 30.05 1018 10 16 0.00 0.03
8:52 am 08:52 Cloudy 49 9.4 43 6.1 80 80 S 8 13 30.04 1017 10 16 0.00 0.00
9:52 am 09:52 Cloudy 50 10 44 6.7 80 80 SSE 7 11 30.03 1017 10 16 0.00 0.00
10:52 am 10:52 Cloudy 52 11.1 45 7.2 77 77 S 6 9 30.01 1016 10 16 0.00 0.00
11:52 am 11:52 Cloudy 55 12.8 45 7.2 69 69 S 8 13 29.99 1016 10 16 0.00 0.00
12:52 pm 12:52 Cloudy 57 13.9 45 7.2 64 64 SSE 7 11 29.96 1015 10 16 0.00 0.00
1:52 pm 13:52 Cloudy 59 15 46 7.8 62 62 S 7 11 29.93 1014 10 16 0.00 0.00
2:52 pm 14:52 Cloudy 60 15.6 48 8.9 65 65 S 10 17 29.93 1014 10 16 0.00 0.00
3:52 pm 15:52 Cloudy 61 16.1 48 8.9 63 63 S 7 11 29.92 1013 10 16 0.00 0.00
4:52 pm 16:52 Cloudy 59 15 49 9.4 69 69 S 9 15 29.91 1013 10 16 0.00 0.00
5:52 pm 17:52 Mostly Cloudy 56 13.3 48 8.9 75 75 S 8 13 29.91 1013 10 16 0.00 0.00
6:52 pm 18:52 Mostly Cloudy 57 13.9 48 8.9 72 72 S 7 11 29.92 1013 10 16 0.00 0.00
7:52 pm 19:52 Mostly Cloudy 54 12.2 48 8.9 80 80 S 8 13 29.91 1013 10 16 0.00 0.00
8:52 pm 20:52 Mostly Cloudy 53 11.7 49 9.4 86 86 S 8 13 29.92 1013 10 16 0.00 0.00
9:52 pm 21:52 Mostly Cloudy 53 11.7 50 10 89 89 S 8 13 29.91 1013 10 16 0.00 0.00
10:52 pm 22:52 Cloudy 54 12.2 52 11.1 93 93 SSW 5 7 29.91 1013 10 16 0.00 0.00
11:52 pm 23:52 Cloudy 54 12.2 52 11.1 93 93 S 8 13 29.91 1013 10 16 0.00 0.00

Powered by AerisWeather